• In Italy
  • List of Countries
  • For 7 days
  • Water Temperature
  • Satellite Maps
  • Weather Map
  • Weather Widgets
  • user-avatar
    Login

    Hourly Weather Bushevica

    Today, 24 September, Monday

    Time Temperature Precipitation Wind Pressure Humidity
    00:00 +8°C° 0.2 mm 2 mps 742 mmHg 90%
    01:00 +8°C° 0.2 mm 2 mps 741 mmHg 92%
    02:00 +10°C° 0 mm 1 mps 740 mmHg 94%
    03:00 +9°C° 1.5 mm 2 mps 739 mmHg 95%
    04:00 +8°C° 1.5 mm 2 mps 738 mmHg 96%
    05:00 +8°C° 1.5 mm 3 mps 738 mmHg 96%
    06:00 +8°C° 2.3 mm 3 mps 737 mmHg 96%
    07:00 +7°C° 2.3 mm 4 mps 736 mmHg 96%
    08:00 +7°C° 2.3 mm 4 mps 735 mmHg 96%
    09:00 +7°C° 1.6 mm 5 mps 735 mmHg 95%
    10:00 +7°C° 1.6 mm 6 mps 735 mmHg 94%
    11:00 +7°C° 1.6 mm 6 mps 735 mmHg 93%
    12:00 +8°C° 0.6 mm 6 mps 736 mmHg 90%
    13:00 +8°C° 0.6 mm 6 mps 737 mmHg 87%
    14:00 +9°C° 0.6 mm 7 mps 737 mmHg 84%
    15:00 +9°C° 0.1 mm 6 mps 738 mmHg 84%
    16:00 +9°C° 0.1 mm 5 mps 739 mmHg 83%
    17:00 +9°C° 0.1 mm 5 mps 739 mmHg 83%
    18:00 +8°C° 0.1 mm 5 mps 740 mmHg 84%
    19:00 +8°C° 0.1 mm 5 mps 741 mmHg 86%
    20:00 +7°C° 0.1 mm 5 mps 741 mmHg 88%
    21:00 +6°C° 0 mm 5 mps 742 mmHg 88%
    22:00 +6°C° 0 mm 5 mps 742 mmHg 87%
    23:00 +5°C° 0 mm 5 mps 743 mmHg 87%

    Tomorrow, 25 September, Tuesday

    Time Temperature Precipitation Wind Pressure Humidity
    00:00 +5°C° 0 mm 5 mps 744 mmHg 88%
    01:00 +5°C° 0 mm 5 mps 744 mmHg 89%
    02:00 +3°C° 0 mm 5 mps 745 mmHg 90%
    03:00 +3°C° 0 mm 5 mps 746 mmHg 89%
    04:00 +3°C° 0 mm 5 mps 746 mmHg 88%
    05:00 +3°C° 0 mm 5 mps 747 mmHg 88%
    06:00 +3°C° 0 mm 6 mps 747 mmHg 85%
    07:00 +3°C° 0 mm 6 mps 748 mmHg 82%
    08:00 +4°C° 0 mm 6 mps 749 mmHg 79%
    09:00 +5°C° 0.1 mm 7 mps 749 mmHg 73%
    10:00 +6°C° 0.1 mm 7 mps 750 mmHg 68%
    11:00 +8°C° 0.1 mm 7 mps 750 mmHg 62%
    12:00 +8°C° 0.1 mm 7 mps 751 mmHg 59%
    13:00 +9°C° 0.1 mm 7 mps 751 mmHg 55%
    14:00 +9°C° 0.1 mm 7 mps 752 mmHg 52%
    15:00 +8°C° 0 mm 6 mps 752 mmHg 54%
    16:00 +8°C° 0 mm 5 mps 753 mmHg 55%
    17:00 +7°C° 0 mm 5 mps 753 mmHg 57%
    18:00 +6°C° 0 mm 4 mps 754 mmHg 58%
    19:00 +5°C° 0 mm 4 mps 755 mmHg 59%
    20:00 +4°C° 0 mm 4 mps 755 mmHg 60%
    21:00 +4°C° 0 mm 4 mps 756 mmHg 65%
    22:00 +3°C° 0 mm 4 mps 757 mmHg 69%
    23:00 +3°C° 0 mm 4 mps 757 mmHg 73%

    Day after tomorrow, 26 September, Wednesday

    Time Temperature Precipitation Wind Pressure Humidity
    00:00 +3°C° 0 mm 3 mps 758 mmHg 78%
    01:00 +2°C° 0 mm 3 mps 758 mmHg 82%
    02:00 +2°C° 0 mm 3 mps 758 mmHg 87%
    03:00 +2°C° 0 mm 3 mps 758 mmHg 87%
    04:00 +2°C° 0 mm 3 mps 759 mmHg 87%
    05:00 +2°C° 0 mm 3 mps 759 mmHg 88%
    06:00 +3°C° 0 mm 4 mps 759 mmHg 84%
    07:00 +3°C° 0 mm 4 mps 759 mmHg 80%
    08:00 +4°C° 0 mm 4 mps 759 mmHg 76%
    09:00 +6°C° 0 mm 5 mps 758 mmHg 70%
    10:00 +8°C° 0 mm 5 mps 758 mmHg 64%
    11:00 +9°C° 0 mm 6 mps 758 mmHg 58%
    12:00 +9°C° 0 mm 6 mps 757 mmHg 59%
    13:00 +9°C° 0 mm 7 mps 757 mmHg 59%
    14:00 +9°C° 0 mm 7 mps 756 mmHg 60%
    15:00 +9°C° 0.1 mm 7 mps 755 mmHg 64%
    16:00 +8°C° 0.1 mm 6 mps 755 mmHg 67%
    17:00 +7°C° 0.1 mm 6 mps 754 mmHg 71%
    18:00 +6°C° 0.3 mm 7 mps 753 mmHg 74%
    19:00 +6°C° 0.3 mm 7 mps 752 mmHg 77%
    20:00 +6°C° 0.3 mm 8 mps 752 mmHg 80%
    21:00 +6°C° 0.4 mm 8 mps 751 mmHg 82%
    22:00 +5°C° 0.4 mm 8 mps 750 mmHg 84%
    23:00 +5°C° 0.4 mm 9 mps 749 mmHg 87%

    27 September, Thursday

    Time Temperature Precipitation Wind Pressure Humidity
    00:00 +6°C° 0.2 mm 8 mps 749 mmHg 88%
    01:00 +6°C° 0.2 mm 8 mps 748 mmHg 89%
    02:00 +6°C° 0.2 mm 8 mps 748 mmHg 90%
    03:00 +7°C° 0.3 mm 8 mps 747 mmHg 90%
    04:00 +7°C° 0.3 mm 8 mps 747 mmHg 90%
    05:00 +9°C° 0.3 mm 8 mps 746 mmHg 90%
    06:00 +9°C° 0.7 mm 7 mps 746 mmHg 91%
    07:00 +9°C° 0.7 mm 7 mps 746 mmHg 92%
    08:00 +10°C° 0.7 mm 6 mps 746 mmHg 93%
    09:00 +10°C° 0.9 mm 6 mps 746 mmHg 93%
    10:00 +12°C° 0.9 mm 5 mps 746 mmHg 94%
    11:00 +12°C° 0.9 mm 4 mps 746 mmHg 94%
    12:00 +12°C° 1 mm 4 mps 746 mmHg 94%
    13:00 +12°C° 1 mm 4 mps 746 mmHg 94%
    14:00 +13°C° 1 mm 3 mps 746 mmHg 93%
    15:00 +13°C° 0.5 mm 3 mps 746 mmHg 93%
    16:00 +13°C° 0.5 mm 3 mps 747 mmHg 93%
    17:00 +13°C° 0.5 mm 4 mps 747 mmHg 93%
    18:00 +13°C° 0.2 mm 4 mps 747 mmHg 94%
    19:00 +13°C° 0.2 mm 4 mps 747 mmHg 94%
    20:00 +13°C° 0.2 mm 5 mps 748 mmHg 94%
    21:00 +13°C° 0.1 mm 4 mps 748 mmHg 95%
    22:00 +12°C° 0.1 mm 4 mps 748 mmHg 95%
    23:00 +12°C° 0.1 mm 4 mps 748 mmHg 95%

    28 September, Friday

    Time Temperature Precipitation Wind Pressure Humidity
    00:00 +12°C° 0.1 mm 4 mps 748 mmHg 94%
    01:00 +12°C° 0.1 mm 5 mps 747 mmHg 94%
    02:00 +12°C° 0.1 mm 5 mps 747 mmHg 94%
    03:00 +11°C° 0 mm 6 mps 746 mmHg 93%
    04:00 +11°C° 0 mm 6 mps 746 mmHg 92%
    05:00 +12°C° 0 mm 7 mps 745 mmHg 91%
    06:00 +12°C° 0.1 mm 7 mps 745 mmHg 91%
    07:00 +12°C° 0.1 mm 7 mps 744 mmHg 90%
    08:00 +12°C° 0.1 mm 7 mps 744 mmHg 90%
    09:00 +12°C° 0.1 mm 7 mps 743 mmHg 89%
    10:00 +13°C° 0.1 mm 8 mps 743 mmHg 88%
    11:00 +13°C° 0.1 mm 8 mps 743 mmHg 87%
    12:00 +13°C° 0.1 mm 8 mps 742 mmHg 85%
    13:00 +13°C° 0.1 mm 8 mps 742 mmHg 82%
    14:00 +13°C° 0.1 mm 8 mps 742 mmHg 80%
    15:00 +13°C° 0.1 mm 8 mps 742 mmHg 79%
    16:00 +12°C° 0.1 mm 7 mps 742 mmHg 79%
    17:00 +12°C° 0.1 mm 7 mps 743 mmHg 78%
    18:00 +10°C° 0 mm 6 mps 743 mmHg 81%
    19:00 +9°C° 0 mm 5 mps 744 mmHg 83%
    20:00 +7°C° 0 mm 5 mps 745 mmHg 86%
    21:00 +6°C° 0 mm 4 mps 745 mmHg 86%
    22:00 +6°C° 0 mm 4 mps 746 mmHg 87%
    23:00 +5°C° 0 mm 3 mps 747 mmHg 87%

    29 September, Saturday

    Time Temperature Precipitation Wind Pressure Humidity
    00:00 +5°C° 0 mm 3 mps 747 mmHg 88%
    01:00 +4°C° 0 mm 3 mps 748 mmHg 88%
    02:00 +4°C° 0 mm 3 mps 748 mmHg 89%
    03:00 +5°C° 0 mm 2 mps 748 mmHg 90%
    04:00 +5°C° 0 mm 2 mps 749 mmHg 90%
    05:00 +4°C° 0 mm 2 mps 749 mmHg 91%
    06:00 +4°C° 0 mm 3 mps 750 mmHg 89%
    07:00 +4°C° 0 mm 3 mps 750 mmHg 88%
    08:00 +5°C° 0 mm 4 mps 751 mmHg 86%
    09:00 +6°C° 0 mm 4 mps 751 mmHg 79%
    10:00 +7°C° 0 mm 5 mps 752 mmHg 72%
    11:00 +8°C° 0 mm 5 mps 753 mmHg 64%
    12:00 +8°C° 0 mm 5 mps 753 mmHg 61%
    13:00 +9°C° 0 mm 5 mps 753 mmHg 58%
    14:00 +9°C° 0 mm 5 mps 754 mmHg 55%
    15:00 +8°C° 0 mm 5 mps 754 mmHg 60%
    16:00 +7°C° 0 mm 4 mps 755 mmHg 64%
    17:00 +7°C° 0 mm 4 mps 755 mmHg 69%
    18:00 +5°C° 0 mm 3 mps 756 mmHg 73%
    19:00 +5°C° 0 mm 2 mps 756 mmHg 77%
    20:00 +4°C° 0 mm 2 mps 757 mmHg 81%
    21:00 +4°C° 0 mm 2 mps 757 mmHg 82%
    22:00 +4°C° 0 mm 1 mps 758 mmHg 82%
    23:00 +4°C° 0 mm 1 mps 758 mmHg 82%
    Show more